User: anonymous   Login
Location: Les Coudrans
(46.1056°N, 1.1158°W)
Time: 18:00:38
(UTC+00:00)
Language:

DMSP B5D2-2 - Orbit

View from above orbital plane
View from above orbital plane
View from above satellite
View from above satellite

Ground track
Ground track

The orbit data is extracted from the following two-line orbital elements,

1 14506U 83113A   21129.17383228  .00000047  00000-0  35391-4 0  9997
2 14506  98.3033 332.1435 0010974 348.0836 124.0591 14.28147602949456
Epoch (UTC): 09 May 2021 04:10:19
Eccentricity: 0.0010974
inclination: 98.3033°
perigee height: 790 km
apogee height: 806 km
right ascension of ascending node: 332.1435°
argument of perigee: 348.0836°
revolutions per day: 14.28147602
mean anomaly at epoch: 124.0591°
orbit number at epoch: 94945

The dashed part of the orbit path shows where the satellite is in the earth's shadow,  

DLR